Wind_Speed
10 11 10 10 9 8 8 7 7 8 8 8 8 7 8 8 8 8 7 6 6 6 6 6 6 5 5 5 5 5 5 5 6 7 7 8 8 7 8 8 8 9 9
9 8 8 9 8 8 8 7 7 7 8 8 8 7 7 7 7 5 6 6 7 7 7 6 6 6 5 6 6 6 6 7 8 8 8 8 7 8 8 8 8 9 9
8 7 7 7 7 7 7 7 6 6 6 7 7 6 7 6 6 6 6 6 6 6 7 6 7 7 6 6 7 7 8 8 9 9 9 9 9 9 9 9 9 10 10
6 6 6 6 6 6 7 6 6 6 5 6 5 5 5 6 5 6 6 6 6 6 6 7 7 7 7 8 8 9 9 10 10 10 9 9 9 9 10 10 10 11 11
6 6 5 5 5 6 6 5 5 5 4 4 5 5 5 6 5 6 6 7 7 7 7 7 7 8 8 9 10 11 11 11 11 10 10 10 10 10 10 11 11 12 12
5 5 5 4 4 4 4 4 4 4 4 4 5 5 5 5 5 6 7 7 7 8 8 8 8 9 9 9 10 11 11 11 11 10 11 11 11 11 12 12 13 13 13
5 4 4 4 3 3 3 4 4 4 5 4 4 5 6 6 6 6 6 7 7 8 8 9 9 9 10 10 10 11 11 11 11 12 12 12 13 13 13 13 13 14 14
3 4 3 3 3 2 2 2 3 3 4 4 4 5 5 5 6 6 6 6 7 7 8 9 10 10 10 10 11 11 11 11 11 12 12 12 12 13 13 14 14 14 15
2 3 3 3 3 2 2 2 2 2 3 4 4 5 6 6 6 6 6 6 7 7 8 8 9 10 10 11 11 12 12 12 12 13 13 13 13 13 14 14 14 15 15
3 2 2 3 3 3 3 3 3 3 3 3 4 4 5 5 6 6 6 7 7 8 9 9 9 10 11 11 11 12 12 12 12 13 13 14 15 15 15 15 16 16 16
3 4 3 4 4 4 4 4 4 4 5 5 5 5 5 6 6 6 7 8 8 8 9 10 11 11 11 12 12 12 13 13 13 13 14 14 15 16 16 16 17 17 17
3 3 4 4 5 5 5 5 6 6 6 7 7 6 6 6 7 7 8 9 9 9 10 11 11 12 12 12 12 12 13 13 13 14 14 15 16 17 17 17 18 18 18
3 4 4 5 6 6 6 6 7 7 7 7 7 8 8 8 8 9 9 10 10 10 11 12 12 13 13 14 14 14 15 15 15 16 16 16 17 17 18 18 19 19 19
4 4 5 6 6 7 7 7 8 8 8 8 9 9 9 9 10 11 11 11 12 12 13 13 13 14 15 15 15 15 16 16 16 17 18 18 18 18 19 19 20 20 20
5 6 6 7 8 8 8 9 10 10 10 11 11 11 11 11 11 12 13 13 13 13 14 14 15 16 16 16 16 16 17 17 17 18 19 19 20 20 21 20 21 21 21
7 7 8 9 9 9 9 10 10 11 12 12 13 13 13 13 13 13 13 14 15 16 15 15 16 17 17 17 18 18 18 19 20 20 21 21 22 21 21 21 22 22 21
9 9 9 10 10 10 11 11 12 13 14 14 14 14 14 14 14 14 15 15 16 17 17 17 18 18 18 18 19 19 20 20 21 21 22 22 22 22 22 22 22 22 22
12 11 11 12 12 12 12 13 14 15 16 16 17 16 16 16 16 16 17 18 18 19 18 18 18 19 20 19 19 20 21 22 22 23 23 23 23 23 23 23 24 24 24
14 14 14 14 14 15 15 16 16 17 17 18 19 18 18 19 19 19 19 20 20 20 20 20 20 21 21 21 21 21 22 23 24 24 25 25 26 26 25 25 26 26 26
16 16 17 17 18 18 18 19 19 19 19 19 20 21 21 21 21 21 21 22 22 22 22 22 22 23 23 24 23 24 24 24 24 25 25 26 27 27 27 26 26 26 26
18 18 19 20 20 20 20 21 22 21 21 21 22 22 23 23 24 24 24 23 24 24 24 25 25 25 25 25 26 26 25 26 26 26 27 27 27 27 27 27 27 27 27
20 21 21 22 22 22 23 23 24 24 24 24 24 24 25 25 26 26 26 26 26 27 27 28 28 27 27 27 27 27 27 28 28 28 28 28 28 27 27 27 28 28 28
23 23 23 23 23 24 25 26 27 27 27 27 27 27 28 28 28 28 29 29 29 29 30 30 30 29 29 29 29 29 30 30 30 29 29 29 29 29 28 28 28 29 28
25 25 25 25 25 25 25 26 27 28 29 29 29 30 30 31 30 30 31 31 30 30 31 31 31 31 31 31 31 31 32 32 31 30 30 30 30 29 29 30 30 30 30
27 27 27 26 27 28 28 29 30 30 30 29 30 31 32 32 31 31 32 32 32 33 33 33 34 33 33 32 33 32 32 32 32 32 32 32 32 32 31 31 31 31 31
28 28 28 29 29 30 30 31 31 32 31 31 31 32 32 32 31 32 33 33 34 34 35 35 35 35 34 34 33 33 34 34 34 33 33 34 34 34 33 33 32 32 32
Wind_Direction
146 149 151 150 152 154 157 159 163 162 167 173 179 184 187 193 199 202 202 198 197 204 212 219 220 230 239 245 250 261 271 272 270 275 279 282 274 268 271 278 280 279 280
142 146 151 155 154 153 158 162 162 169 178 180 184 187 193 198 200 205 207 208 213 220 225 230 235 240 246 251 257 265 272 274 275 277 280 281 277 270 269 273 278 281 282
139 146 153 157 161 164 166 165 166 171 180 184 188 194 195 199 213 215 213 220 228 236 236 239 247 247 252 259 264 269 275 276 276 278 279 278 276 272 269 272 274 279 282
144 145 148 150 158 165 163 170 174 176 185 193 193 202 212 220 224 222 230 239 241 244 250 253 253 253 259 266 270 272 277 277 277 276 278 279 277 275 274 277 279 283 283
140 138 142 148 158 167 171 174 181 186 201 211 209 215 225 232 233 234 244 249 247 248 256 261 258 259 265 271 275 277 278 279 277 276 280 282 282 280 279 278 279 282 285
140 141 147 151 159 174 180 187 196 201 210 221 227 232 236 245 246 246 253 255 254 256 261 266 265 263 270 275 279 280 280 280 279 280 284 286 287 287 287 287 283 283 287
139 142 149 156 163 170 184 201 211 228 237 241 248 254 256 257 255 255 256 258 259 264 267 270 270 270 272 275 278 280 281 281 279 281 283 285 286 285 286 288 288 288 289
155 161 169 176 179 181 188 202 214 230 240 246 256 264 264 260 264 267 270 271 268 269 271 270 271 272 271 276 279 279 281 280 279 280 281 285 287 287 286 287 289 289 289
171 182 192 201 199 203 206 198 210 219 240 249 252 257 261 266 265 268 269 268 265 268 268 269 272 273 275 278 279 280 280 280 281 282 283 284 289 290 288 290 292 291 291
193 197 227 221 224 221 215 227 241 255 257 256 258 267 269 273 270 268 273 275 272 270 271 273 277 277 278 279 280 281 282 283 285 285 288 288 289 290 291 291 292 294 291
224 226 234 225 224 227 229 241 253 264 266 273 274 275 271 270 273 278 277 279 277 273 273 275 276 277 280 280 281 283 284 284 284 286 288 289 290 289 290 289 290 290 290
247 245 236 233 239 245 251 256 261 266 267 271 269 271 272 271 271 275 278 278 276 279 283 283 280 278 281 283 284 285 286 285 287 288 289 289 289 289 288 288 288 289 291
278 258 253 255 255 256 259 260 263 265 267 268 267 269 271 274 274 275 276 276 277 281 284 286 284 282 282 283 284 284 284 285 285 286 287 288 289 289 290 290 289 289 288
289 276 267 267 268 269 265 264 265 267 268 271 273 272 273 274 274 274 276 276 277 280 284 286 286 286 286 284 282 284 283 284 285 286 288 289 290 291 292 291 290 289 287
290 282 273 273 275 275 273 270 270 270 271 273 273 275 278 283 281 278 276 276 278 282 285 286 286 287 287 286 283 283 284 285 286 287 288 290 290 291 291 290 290 289 288
289 286 280 273 272 271 271 273 275 274 273 275 276 277 279 281 283 282 281 281 280 280 283 285 286 288 287 283 282 282 283 284 285 286 287 288 289 290 289 289 289 289 288
283 283 282 279 274 272 272 273 276 278 276 276 276 278 279 280 281 283 284 284 285 286 288 285 286 287 288 285 284 286 286 285 286 288 289 289 290 292 291 289 290 289 288
280 278 278 280 279 278 277 276 276 278 277 277 278 278 276 278 280 281 283 284 285 285 286 285 285 286 286 286 285 286 287 285 285 286 288 290 291 292 292 290 289 289 288
277 274 274 275 275 277 278 280 280 279 278 278 278 278 277 278 280 282 283 284 284 283 283 282 283 285 284 284 286 287 287 287 288 287 288 291 293 292 292 291 289 288 287
277 275 276 276 275 276 277 278 281 281 279 280 280 280 280 280 281 282 283 283 283 282 283 283 284 285 285 281 283 284 285 287 289 290 289 290 292 291 289 290 288 288 289
279 279 279 278 276 276 277 278 279 278 278 279 281 281 281 281 281 281 282 282 284 284 284 284 285 285 286 284 284 286 288 290 291 291 291 291 291 290 288 287 287 287 288
279 279 281 283 281 279 279 281 280 279 279 279 280 280 281 282 283 283 282 283 284 283 283 283 284 284 284 285 286 287 288 287 288 289 290 290 290 290 288 286 285 286 286
279 280 282 282 282 282 281 281 281 280 281 281 281 280 281 281 281 282 282 282 283 284 283 282 283 283 284 284 284 285 285 285 286 288 289 289 289 290 289 286 286 286 285
279 278 279 280 282 282 283 284 283 281 280 280 280 280 281 280 280 281 283 282 282 283 282 283 282 281 281 281 282 283 284 284 285 286 287 288 288 289 289 287 286 286 285
279 277 278 280 281 282 282 283 283 282 281 281 281 281 282 283 282 283 283 283 283 284 284 283 283 283 283 282 281 281 283 284 286 286 285 286 286 286 286 287 286 285 285
281 281 281 281 281 280 280 282 282 282 283 282 283 282 282 283 283 283 283 284 284 284 284 282 283 284 283 283 282 282 283 284 285 286 286 286 285 285 286 285 285 285 284
Height
5881 5882 5883 5885 5886 5886 5888 5889 5890 5891 5892 5893 5894 5895 5895 5896 5897 5898 5898 5899 5900 5901 5902 5902 5902 5903 5903 5903 5903 5903 5903 5903 5903 5903 5903 5902 5902 5902 5902 5902 5901 5901 5901
5883 5884 5885 5886 5887 5887 5888 5889 5890 5891 5892 5893 5894 5895 5896 5896 5897 5898 5898 5899 5900 5900 5901 5901 5902 5902 5902 5902 5902 5902 5902 5902 5901 5902 5901 5901 5900 5900 5900 5900 5900 5899 5899
5885 5886 5886 5887 5888 5888 5889 5890 5891 5892 5893 5894 5895 5895 5896 5896 5897 5898 5898 5899 5899 5900 5900 5900 5901 5901 5901 5901 5901 5901 5900 5900 5900 5900 5899 5899 5898 5898 5898 5898 5897 5897 5897
5886 5887 5888 5888 5888 5889 5890 5891 5891 5892 5893 5894 5894 5895 5895 5896 5897 5897 5898 5898 5898 5899 5899 5899 5900 5900 5900 5900 5899 5899 5899 5898 5898 5898 5897 5897 5896 5896 5896 5896 5895 5895 5895
5888 5888 5889 5889 5889 5889 5890 5891 5892 5892 5893 5894 5894 5895 5895 5896 5896 5896 5897 5897 5897 5898 5898 5898 5898 5898 5898 5898 5898 5898 5897 5896 5896 5895 5895 5895 5895 5894 5894 5893 5893 5892 5892
5889 5889 5890 5890 5890 5890 5891 5891 5892 5893 5893 5894 5894 5894 5895 5895 5895 5896 5896 5896 5896 5896 5896 5896 5896 5896 5896 5896 5896 5896 5895 5894 5894 5894 5893 5893 5892 5892 5891 5891 5890 5890 5889
5889 5890 5890 5890 5891 5891 5891 5892 5892 5892 5893 5893 5894 5894 5894 5894 5894 5894 5895 5895 5895 5895 5895 5895 5894 5894 5894 5894 5894 5893 5893 5892 5892 5891 5891 5890 5890 5889 5889 5888 5887 5887 5886
5890 5890 5891 5891 5891 5891 5892 5892 5892 5892 5892 5892 5893 5893 5893 5894 5893 5893 5893 5893 5893 5893 5893 5893 5893 5892 5892 5892 5891 5891 5890 5890 5889 5889 5888 5888 5887 5886 5886 5885 5884 5883 5882
5890 5891 5891 5891 5891 5891 5891 5892 5892 5892 5892 5892 5892 5892 5892 5892 5892 5892 5892 5892 5891 5891 5891 5891 5891 5890 5890 5889 5889 5888 5888 5887 5887 5886 5886 5885 5884 5883 5883 5882 5881 5880 5879
5890 5891 5891 5891 5891 5891 5891 5891 5891 5891 5891 5891 5891 5891 5891 5891 5891 5891 5891 5890 5889 5889 5889 5889 5888 5888 5887 5887 5886 5886 5885 5885 5884 5883 5882 5882 5881 5880 5879 5879 5877 5876 5875
5890 5890 5890 5890 5890 5891 5891 5891 5891 5890 5890 5890 5890 5890 5890 5890 5890 5889 5889 5888 5888 5887 5887 5887 5886 5885 5885 5884 5883 5883 5882 5882 5881 5880 5879 5878 5877 5877 5876 5875 5874 5872 5871
5890 5889 5889 5889 5890 5890 5890 5890 5890 5889 5889 5889 5889 5889 5888 5888 5888 5888 5887 5886 5886 5885 5885 5884 5883 5883 5882 5881 5881 5880 5879 5879 5878 5877 5876 5875 5874 5873 5872 5870 5869 5868 5867
5889 5889 5889 5889 5889 5889 5889 5889 5888 5888 5888 5888 5887 5887 5887 5886 5886 5885 5885 5884 5883 5883 5882 5881 5880 5879 5879 5878 5877 5877 5876 5875 5874 5873 5872 5871 5869 5868 5867 5866 5865 5864 5863
5888 5888 5888 5888 5887 5887 5887 5887 5887 5886 5886 5886 5885 5885 5884 5883 5883 5882 5882 5881 5880 5880 5879 5878 5876 5876 5875 5874 5873 5872 5871 5871 5869 5868 5867 5866 5865 5864 5863 5861 5860 5859 5858
5887 5887 5886 5886 5885 5885 5885 5885 5884 5884 5884 5883 5883 5882 5881 5881 5880 5879 5879 5878 5877 5876 5875 5874 5873 5872 5871 5870 5869 5868 5867 5866 5865 5864 5863 5861 5860 5859 5857 5856 5855 5854 5852
5886 5885 5885 5884 5883 5883 5883 5882 5882 5881 5881 5881 5880 5879 5878 5877 5877 5876 5875 5874 5873 5872 5871 5870 5869 5868 5866 5865 5864 5863 5862 5861 5860 5859 5858 5856 5855 5853 5852 5850 5849 5848 5847
5884 5883 5882 5881 5881 5880 5880 5879 5879 5878 5878 5877 5876 5875 5874 5873 5873 5872 5871 5870 5869 5868 5867 5866 5864 5863 5862 5861 5859 5858 5857 5856 5855 5854 5852 5851 5849 5847 5846 5845 5843 5842 5841
5881 5880 5879 5878 5878 5877 5877 5876 5875 5874 5874 5873 5872 5871 5870 5869 5869 5868 5867 5866 5865 5863 5862 5861 5860 5858 5857 5856 5854 5853 5851 5850 5849 5847 5846 5845 5843 5841 5840 5838 5837 5836 5834
5877 5876 5876 5875 5874 5874 5873 5872 5871 5870 5869 5868 5867 5867 5866 5864 5864 5863 5862 5860 5859 5858 5856 5855 5854 5853 5851 5850 5848 5847 5845 5844 5842 5841 5840 5838 5837 5835 5833 5832 5831 5829 5828
5873 5872 5872 5871 5870 5869 5868 5867 5866 5865 5864 5863 5862 5861 5860 5859 5858 5857 5856 5855 5853 5852 5851 5849 5848 5847 5845 5843 5842 5841 5839 5837 5836 5834 5833 5831 5830 5828 5827 5825 5823 5822 5821
5869 5868 5867 5865 5865 5864 5863 5862 5861 5859 5858 5857 5856 5856 5854 5853 5852 5851 5850 5849 5847 5846 5844 5843 5841 5840 5838 5837 5836 5834 5832 5831 5829 5828 5826 5824 5822 5820 5819 5818 5816 5815 5813
5863 5862 5862 5860 5859 5858 5857 5856 5854 5853 5852 5851 5850 5849 5848 5847 5845 5844 5843 5842 5840 5839 5837 5835 5834 5832 5831 5830 5828 5827 5825 5824 5822 5821 5818 5817 5815 5813 5812 5810 5809 5807 5806
5858 5856 5855 5854 5853 5851 5850 5849 5847 5846 5845 5843 5842 5842 5840 5839 5838 5836 5835 5834 5832 5830 5829 5828 5826 5825 5823 5822 5820 5819 5818 5816 5815 5813 5811 5809 5807 5806 5804 5802 5801 5799 5798
5851 5850 5849 5847 5846 5845 5843 5842 5840 5838 5837 5836 5835 5833 5832 5830 5829 5828 5826 5825 5824 5822 5820 5819 5818 5816 5815 5813 5812 5810 5809 5807 5806 5804 5803 5802 5799 5798 5796 5794 5792 5791 5789
5844 5842 5841 5840 5839 5838 5836 5834 5832 5831 5829 5828 5827 5825 5823 5822 5820 5819 5817 5816 5815 5813 5811 5809 5808 5807 5805 5804 5802 5801 5799 5798 5796 5795 5794 5792 5790 5789 5787 5785 5783 5782 5780
5836 5835 5833 5832 5831 5830 5828 5826 5824 5822 5821 5820 5818 5816 5815 5813 5811 5809 5808 5807 5805 5804 5801 5800 5798 5797 5795 5794 5792 5791 5789 5788 5786 5785 5784 5782 5781 5779 5778 5776 5774 5772 5771